This is the latest recevied weather packets stored in our database for station/object VE9LJW. If no packets are shown the sender has not sent any weather packets the latest 10 day(s).
| Time | Temp. | Humidity | Pressure | Rain* | Wind** | Luminosity | Snow |
|---|---|---|---|---|---|---|---|
| 1777622331 | 12.22° C | 99% | 1001.9 hPa | 5.33 mm | - | 0 W/m² | - |
| 1777622027 | 12.22° C | 99% | 1001.9 hPa | 2.29 mm | - | 0 W/m² | - |
| 1777621722 | 12.22° C | 99% | 1002.1 hPa | 1.27 mm | - | 0 W/m² | - |
| 1777621419 | 12.22° C | 99% | 1002.1 hPa | 0.51 mm | - | 0 W/m² | - |
| 1777621115 | 12.22° C | 99% | 1001.9 hPa | 1.27 mm | - | 0 W/m² | - |
| 1777620812 | 12.22° C | 99% | 1002.1 hPa | 2.29 mm | - | 0 W/m² | - |
| 1777620508 | 12.22° C | 99% | 1002.2 hPa | 1.27 mm | - | 0 W/m² | - |
| 1777620206 | 12.22° C | 99% | 1002.2 hPa | 4.32 mm | - | 0 W/m² | - |
| 1777619902 | 12.22° C | 99% | 1002.1 hPa | 3.05 mm | - | 0 W/m² | - |
| 1777619597 | 12.22° C | 99% | 1002.1 hPa | 0.51 mm | - | 0 W/m² | - |
| 1777619292 | 12.22° C | 99% | 1002.4 hPa | 0.51 mm | - | 0 W/m² | - |
| 1777618992 | 12.22° C | 99% | 1002.2 hPa | 0.51 mm | - | 0 W/m² | - |
| 1777618687 | 12.78° C | 99% | 1002.3 hPa | 1.78 mm | - | 0 W/m² | - |
| 1777618382 | 12.22° C | 99% | 1002.3 hPa | 1.27 mm | - | 0 W/m² | - |
| 1777618080 | 12.22° C | 99% | 1002.7 hPa | 1.27 mm | - | 0 W/m² | - |
| 1777617775 | 12.22° C | 99% | 1002.5 hPa | 1.78 mm | - | 0 W/m² | - |
| 1777617470 | 12.22° C | 99% | 1002.6 hPa | 0 mm | - | 0 W/m² | - |
| 1777617168 | 12.22° C | 99% | 1002.8 hPa | 0 mm | - | 0 W/m² | - |
| 1777616864 | 12.22° C | 99% | 1002.7 hPa | 0 mm | - | 0 W/m² | - |
| 1777616559 | 12.22° C | 99% | 1002.9 hPa | 0 mm | - | 0 W/m² | - |
| 1777616255 | 12.22° C | 99% | 1002.9 hPa | 0 mm | - | 0 W/m² | - |
| 1777615953 | 12.22° C | 99% | 1002.9 hPa | 0 mm | - | 0 W/m² | - |
| 1777615649 | 12.22° C | 99% | 1003 hPa | 0.51 mm | - | 0 W/m² | - |
| 1777615346 | 12.22° C | 99% | 1003 hPa | 0 mm | - | 0 W/m² | - |
| 1777615044 | 12.22° C | 99% | 1003.3 hPa | 1.27 mm | - | 0 W/m² | - |
* Rain latest hour (hover to see other rain measurements)
** Current wind speed in m/s (hover to see current wind gust speed)